Dewpoint
38 38 38 37 36 37 36 35 30 30 29 30 27 27 29 28 28 26 26 29 33 33 33 33 34 35 36 37 37 37 37 37 36 37 40 45 47 47 46 45 45 44 43 42
37 39 38 37 37 37 36 34 33 32 31 32 32 31 30 28 27 26 30 33 33 33 33 33 34 36 37 38 39 39 39 39 39 39 39 41 45 47 47 46 45 43 42 42
32 37 35 32 35 35 34 35 34 31 32 32 31 30 30 29 28 30 33 33 32 31 31 31 31 34 34 37 39 40 40 40 40 42 42 41 42 46 46 45 43 42 42 41
31 33 24 29 31 34 34 33 33 32 31 31 31 30 27 27 30 32 32 32 31 31 31 31 32 34 36 37 39 40 41 42 42 43 42 43 45 45 45 44 42 41 41 41
29 28 30 31 30 27 28 25 31 31 31 31 24 26 28 31 31 31 30 29 29 30 31 31 31 33 36 37 40 42 42 42 43 42 42 41 42 44 45 44 42 41 41 40
30 26 24 27 23 24 24 23 25 26 28 20 23 18 22 29 29 29 29 29 27 27 28 30 31 35 36 37 38 39 40 41 42 41 41 41 41 41 41 43 43 42 40 40
30 28 30 32 25 22 20 24 25 25 24 24 22 23 25 24 22 22 21 19 19 17 17 23 31 36 37 36 37 39 41 41 40 40 42 41 39 38 39 38 38 38 38 38
30 27 25 34 32 25 27 26 25 24 24 23 21 20 19 15 15 15 16 17 19 24 29 32 35 37 36 36 38 39 39 39 39 40 39 38 37 37 37 36 35 34 33 33
31 30 31 31 32 30 28 26 26 19 15 15 14 14 14 14 15 16 17 21 30 32 33 34 35 37 36 37 40 40 39 38 38 38 37 37 36 35 34 34 33 32 32 31
32 33 32 29 26 26 27 22 15 14 13 13 14 16 16 17 17 19 27 31 32 34 36 35 37 38 37 40 40 39 38 38 38 37 36 36 35 34 33 32 32 32 31 30
33 32 32 33 30 19 16 16 16 17 18 18 17 19 19 25 31 32 32 35 36 36 35 35 39 39 41 41 41 39 39 38 37 37 36 35 34 34 34 33 33 32 32 31
30 33 32 31 31 20 22 26 27 27 28 32 32 32 33 33 33 33 33 34 33 34 35 35 39 39 40 40 41 40 39 38 36 36 35 34 34 33 34 34 34 34 34 33
25 25 31 27 28 29 29 29 30 32 32 31 32 33 32 32 32 32 32 31 31 33 34 36 36 36 37 38 40 39 39 38 36 35 34 34 33 32 32 33 34 34 34 34
25 23 26 28 28 29 28 29 30 30 30 29 29 30 30 30 30 30 30 30 29 29 33 35 35 35 35 36 37 37 37 37 35 34 34 34 34 33 33 31 31 31 33 33
23 26 28 29 28 27 28 28 27 27 27 27 27 29 29 29 29 29 29 30 32 32 32 34 33 33 34 34 36 37 36 36 35 34 34 34 33 33 33 32 31 31 31 32
29 30 30 28 27 26 26 26 25 25 25 26 27 28 28 29 29 28 27 29 30 30 33 32 31 32 32 33 34 35 35 35 34 34 33 33 33 32 31 31 31 31 31 31
28 28 29 27 25 25 24 25 24 24 24 24 26 29 28 29 28 28 30 29 29 31 31 31 30 31 31 32 33 34 35 35 34 34 33 33 32 32 32 31 31 31 31 31
29 30 29 27 25 25 25 25 27 27 26 28 28 27 26 26 27 29 30 29 28 28 30 30 29 29 30 30 32 33 33 33 33 33 32 32 32 32 32 31 31 31 31 31
30 30 31 30 28 27 26 26 26 26 27 26 25 25 25 25 26 30 29 29 27 28 29 30 29 30 30 31 30 32 33 32 33 32 32 32 31 31 31 31 31 31 31 30
29 29 31 29 28 26 25 25 26 26 27 26 25 25 24 24 25 27 28 28 27 27 29 29 29 30 31 31 31 32 33 32 32 31 31 30 30 30 29 29 29 30 29 29
27 27 26 25 23 23 23 24 26 25 26 26 26 24 23 25 25 27 27 27 28 28 29 29 30 30 30 31 31 31 31 31 30 30 30 29 29 27 26 25 24 24 24 24
25 25 24 24 24 24 25 25 26 25 25 26 26 25 24 23 24 26 28 28 28 28 30 28 28 29 29 29 29 28 28 28 28 27 26 25 23 22 21 20 19 19 19 19
24 25 25 24 23 23 23 22 22 22 22 21 22 23 24 24 24 24 25 28 29 28 27 26 27 27 27 25 25 24 24 23 22 22 22 21 20 19 18 17 17 16 16 16
24 23 22 22 22 22 21 22 22 19 19 20 23 24 24 24 25 27 27 28 27 25 25 25 25 24 23 23 22 22 21 20 19 18 18 18 17 16 15 14 14 14 14 15
22 21 21 20 18 17 19 20 20 20 20 20 21 22 23 26 27 24 23 23 23 22 21 21 20 20 20 19 18 18 18 18 17 16 16 15 14 13 13 12 12 12 12 12
22 19 19 19 19 19 19 18 16 17 18 18 20 19 21 26 26 24 22 21 19 18 17 17 17 16 16 16 15 15 15 15 14 14 13 12 12 11 10 10 10 9 9 10
18 18 17 15 16 17 16 15 14 14 18 18 18 19 21 23 21 20 18 16 16 15 15 14 14 14 13 12 12 12 12 12 12 11 11 11 10 10 9 9 9 9 8 8
Wind_Speed
28 31 28 32 34 32 31 28 21 29 28 16 23 21 21 21 14 13 6 13 12 10 8 5 7 8 10 10 11 10 12 14 17 16 16 17 16 17 20 19 16 14 14 15
29 22 23 31 32 26 31 32 30 38 47 27 25 21 19 19 17 13 17 15 11 6 3 3 3 5 8 12 13 11 12 15 17 17 15 13 17 18 19 18 18 16 17 18
29 13 11 25 30 33 33 34 29 32 48 30 18 19 20 20 15 17 17 12 8 5 3 3 5 3 3 5 8 12 16 16 15 15 12 10 12 17 18 19 16 19 18 17
11 9 15 15 5 19 30 33 30 31 32 24 19 13 5 7 16 17 14 10 7 7 8 9 8 9 4 4 8 11 16 17 13 10 10 5 4 8 8 9 16 16 17 18
10 18 13 27 13 13 15 31 21 29 27 16 12 11 7 10 12 14 11 11 9 11 14 16 14 10 5 6 8 12 15 16 12 9 13 9 4 4 9 11 12 14 13 15
9 9 16 10 5 8 8 33 13 22 20 16 15 17 9 11 11 9 8 6 7 10 9 11 17 9 7 7 11 13 15 17 10 12 12 10 7 3 3 4 13 15 16 16
27 18 10 14 5 1 12 16 8 11 13 14 10 6 10 10 7 4 2 2 3 7 10 12 9 4 6 11 15 14 11 6 7 10 11 8 4 1 2 4 5 9 12 11
13 13 19 15 10 19 11 10 16 13 11 14 12 9 9 7 5 2 5 7 10 9 9 6 2 6 12 15 14 14 12 6 7 8 2 1 2 1 2 2 2 3 6 7
16 11 3 4 12 6 12 14 10 13 10 12 11 8 7 4 0 3 5 5 6 5 6 5 5 8 14 17 10 6 3 10 7 6 3 1 1 1 0 2 4 5 7 8
8 14 17 8 2 2 9 11 12 12 11 9 8 5 3 1 2 5 6 6 6 7 8 9 12 14 15 12 6 2 5 8 5 4 5 1 2 3 2 2 4 6 7 8
9 8 6 9 13 7 10 12 12 10 8 6 4 3 2 7 11 8 7 7 8 9 8 10 11 11 5 6 7 6 5 5 7 6 6 5 4 3 3 3 6 7 7 8
17 14 18 11 12 8 13 13 12 12 12 14 14 12 11 9 6 6 6 7 9 9 9 10 11 12 8 9 11 12 13 13 12 9 7 7 6 3 0 2 6 8 7 9
6 8 11 14 11 10 14 12 13 15 13 13 11 10 7 4 4 4 5 6 9 9 9 5 6 8 10 11 12 9 5 12 12 12 11 10 7 7 5 0 2 4 6 7
17 16 15 9 11 14 16 15 17 15 13 11 9 8 7 6 6 7 8 10 9 9 7 6 8 8 10 10 10 4 10 10 15 13 10 8 8 8 7 7 5 4 5 5
11 11 17 17 13 12 12 12 11 10 9 8 7 6 5 5 6 6 7 9 10 10 7 8 9 9 10 11 9 5 5 9 11 11 11 8 7 6 6 7 8 7 4 4
14 16 17 19 17 14 13 10 10 7 6 5 5 3 4 5 6 7 8 6 9 10 10 8 9 7 9 11 10 4 7 9 10 11 9 8 7 7 8 8 8 8 9 9
14 11 14 14 15 12 11 10 8 6 4 2 3 3 4 6 7 7 6 7 8 10 6 5 8 9 9 8 8 2 3 4 7 8 8 8 8 9 9 9 8 8 8 10
9 10 11 14 13 14 11 8 7 5 3 4 4 2 5 6 9 9 8 8 8 9 7 4 5 7 8 9 9 6 4 5 6 7 7 6 6 6 7 6 6 6 5 9
15 15 13 11 9 10 10 7 4 3 3 1 2 4 5 7 9 8 8 7 6 6 3 3 5 7 7 5 8 9 8 7 7 8 7 7 6 5 4 4 4 4 4 6
15 11 13 9 6 4 4 4 4 2 3 3 4 5 5 8 8 10 9 9 8 7 4 5 6 6 5 6 6 5 5 6 6 5 6 6 6 7 7 7 7 7 5 2
11 9 7 5 5 3 2 2 3 4 8 7 7 7 6 6 8 10 10 10 7 6 5 4 4 4 4 3 1 1 3 5 6 6 6 8 9 9 10 11 11 10 9 9
9 10 8 6 3 2 3 3 3 7 9 11 11 11 9 8 8 10 11 13 6 7 6 5 2 4 3 2 3 5 7 8 7 9 11 12 12 13 12 11 11 11 11 12
6 4 3 5 3 1 5 7 9 9 9 11 13 14 14 14 8 9 12 9 8 7 6 3 3 6 8 8 9 10 10 11 11 11 12 13 13 13 13 12 12 12 13 13
10 8 5 2 3 5 7 9 8 9 10 11 8 10 11 12 12 7 7 9 12 10 5 4 7 10 10 10 10 10 11 11 11 12 14 14 13 13 13 13 13 12 12 13
7 5 3 3 3 6 6 7 7 9 10 10 10 10 11 10 12 8 9 10 11 10 10 11 12 12 11 11 11 11 11 11 11 12 12 13 13 13 13 12 12 12 12 12
4 1 2 3 3 5 5 7 7 9 10 12 13 14 14 7 6 12 12 12 12 13 12 10 11 12 12 12 13 13 12 12 13 13 13 13 13 13 13 13 13 12 12 12
7 8 8 7 7 6 7 9 11 13 12 14 16 17 13 8 8 11 14 14 13 12 12 12 12 13 12 13 14 13 13 13 13 14 13 14 13 13 12 12 12 11 12 12
Wind_Direction
250 251 252 259 254 257 266 258 254 270 258 244 230 236 229 212 221 234 218 140 142 132 119 79 44 12 355 332 316 311 307 297 285 284 269 246 233 217 213 204 205 204 206 207
260 247 244 257 254 247 244 252 260 266 269 254 256 241 225 218 213 204 159 147 145 132 102 55 9 356 352 349 340 340 333 328 313 310 283 268 241 223 209 203 201 200 207 199
257 240 244 259 253 232 234 235 235 243 248 276 255 240 240 242 215 176 161 158 158 172 214 265 293 284 325 323 326 322 312 304 306 311 305 312 272 215 204 203 196 208 201 199
248 157 224 245 183 212 222 239 230 244 256 259 262 250 234 198 158 148 157 169 194 215 234 243 250 239 235 314 305 294 285 286 285 298 298 300 239 217 231 206 201 208 209 206
215 214 276 283 235 214 190 259 216 230 243 241 146 106 86 126 138 158 179 197 211 232 239 240 243 250 248 267 288 290 294 290 282 302 305 276 258 238 215 211 214 221 216 214
193 221 223 244 139 137 135 258 196 221 224 177 157 186 184 182 170 179 200 224 248 264 261 257 256 235 233 265 281 282 292 289 288 307 304 274 220 196 238 239 226 222 217 210
226 238 255 244 155 102 205 253 149 143 142 148 169 177 149 162 158 169 146 21 318 309 317 301 285 210 245 268 272 277 276 271 295 306 301 255 246 244 272 292 261 226 221 204
219 239 252 202 197 209 216 148 138 132 133 121 131 141 142 132 115 47 350 343 354 19 20 17 141 216 256 260 269 280 277 300 317 316 359 281 222 109 85 209 189 163 155 143
198 213 216 179 237 263 173 164 166 145 144 137 138 137 140 139 91 315 307 8 83 53 39 5 325 268 275 268 274 319 281 348 318 322 310 261 171 104 129 190 181 181 172 159
183 237 229 181 91 160 151 141 133 134 135 131 136 138 131 165 308 338 75 73 44 42 24 353 334 311 282 254 260 238 319 282 285 305 249 164 136 141 156 210 223 208 189 183
236 244 130 171 207 154 134 117 112 102 96 97 99 43 27 86 92 79 62 60 43 27 5 346 339 353 339 287 271 259 282 250 231 229 227 200 187 181 198 207 227 228 214 188
219 210 198 179 183 151 111 113 111 111 87 81 100 107 111 104 81 62 47 45 19 360 345 341 339 334 332 313 273 245 236 202 203 198 212 202 178 172 312 268 216 239 243 208
179 157 156 152 126 127 119 108 95 95 96 91 71 85 84 89 61 53 41 27 2 340 317 359 17 10 353 335 309 289 299 195 191 188 193 199 191 191 198 248 253 233 246 217
136 114 117 130 133 118 115 109 105 98 97 94 86 75 72 48 26 19 11 341 334 322 328 349 330 327 340 334 323 301 266 205 182 183 180 195 206 216 208 202 219 229 234 220
154 144 159 122 123 124 122 123 117 112 114 96 79 95 64 22 8 348 7 345 339 323 314 327 319 319 327 323 320 300 182 178 172 176 180 184 195 206 222 213 216 210 202 206
101 117 138 148 144 139 132 125 122 117 97 83 82 59 31 352 326 329 326 348 336 316 306 307 309 321 326 322 317 267 203 200 185 172 171 173 190 202 221 224 217 207 204 197
122 147 143 143 146 143 138 132 134 142 143 122 97 42 356 334 318 322 327 331 326 309 297 291 301 325 329 325 314 310 202 187 188 175 181 183 195 203 215 214 216 213 212 196
149 135 131 135 136 131 128 120 114 107 108 97 101 35 358 328 310 310 317 325 323 319 310 264 316 309 303 309 308 283 228 199 188 186 173 177 201 198 213 209 222 214 211 208
131 129 125 117 120 120 124 130 118 111 127 118 339 311 307 298 302 307 313 312 311 315 318 327 315 291 292 283 292 289 233 210 203 194 184 181 172 171 188 184 173 165 183 187
118 116 114 121 113 125 143 132 125 125 262 257 205 245 293 302 305 305 303 289 272 263 265 292 293 293 295 293 264 272 225 205 183 170 167 157 132 113 102 101 106 99 84 119
130 150 159 174 159 160 187 210 198 246 259 263 261 259 279 287 287 290 288 284 289 213 237 254 288 272 288 302 328 204 202 170 161 159 145 131 112 99 90 81 78 80 80 75
158 168 185 196 200 287 324 320 284 286 281 278 264 258 259 263 277 280 267 256 240 212 217 191 256 271 241 159 129 117 113 117 115 113 108 105 107 102 94 89 88 80 74 69
167 177 142 127 127 310 314 312 314 314 307 302 281 264 255 253 243 271 278 235 206 194 193 204 222 179 140 126 113 106 104 103 104 102 102 103 103 101 98 92 83 78 75 71
113 107 99 66 6 339 328 330 329 319 312 316 314 294 285 282 269 245 261 212 179 169 166 154 132 121 112 104 102 100 98 98 97 95 94 94 94 95 92 92 87 76 75 76
118 99 44 12 1 323 327 343 18 18 1 340 338 335 327 289 253 213 161 145 141 131 114 109 106 101 98 94 93 90 85 83 89 93 93 94 92 90 88 86 86 89 84 79
141 197 303 347 52 68 58 26 1 337 331 322 315 315 312 282 229 166 148 137 126 118 111 101 96 91 87 86 86 84 83 82 83 82 86 85 87 88 89 88 85 82 79 79
94 93 88 66 38 27 2 339 327 318 306 304 300 291 283 205 158 134 128 121 114 106 102 96 92 91 91 89 85 82 81 79 80 85 82 85 84 86 86 84 82 79 79 84